Location: Newark
(53.3333°N, 83.7500°E)
Time: 07:37:03
(UTC+00:00)

Transit 4A - Visible Passes

Search period start: 22 November 2019 00:00
Search period end: 02 December 2019 00:00
Orbit: 869 x 976 km, 66.8° (Epoch: 21 November)

Date Brightness Start Highest point End Pass type
(mag) Time Alt. Az. Time Alt. Az. Time Alt. Az.
22 Nov 8.1 00:35:55 14° NW 00:40:53 50° WSW 00:46:27 10° SSE visible
22 Nov 9.8 21:18:19 22° NE 21:18:19 22° NE 21:21:19 10° ENE visible
22 Nov 8.2 23:01:52 39° NNW 23:03:55 61° NE 23:09:42 10° ESE visible
23 Nov 8.5 00:45:24 13° NW 00:50:03 36° WSW 00:55:17 10° S visible
23 Nov 9.7 21:27:51 26° NE 21:27:51 26° NE 21:31:13 10° E visible
23 Nov 7.8 23:11:24 44° NNW 23:13:21 78° NE 23:19:11 10° SE visible
24 Nov 8.8 00:54:56 12° WNW 00:59:08 26° WSW 01:03:51 10° SSW visible
24 Nov 9.5 21:37:28 29° ENE 21:37:28 29° ENE 21:41:05 10° E visible
24 Nov 7.6 23:21:00 49° NW 23:22:42 81° SW 23:28:31 10° SSE visible
25 Nov 9.2 01:04:33 11° WNW 01:08:10 19° WSW 01:12:03 10° SSW visible
25 Nov 9.2 21:47:09 33° ENE 21:47:09 33° ENE 21:50:52 10° ESE visible
25 Nov 7.8 23:30:42 49° WNW 23:31:59 60° WSW 23:37:41 10° SSE visible
26 Nov 9.5 01:14:40 10° WNW 01:17:08 13° WSW 01:19:34 10° SW visible
26 Nov 9.1 21:56:54 36° E 21:56:54 36° E 22:00:33 10° ESE visible
26 Nov 8.1 23:40:28 42° W 23:41:11 44° WSW 23:46:40 10° S visible
27 Nov 9.0 22:06:46 36° ESE 22:06:46 36° ESE 22:10:08 10° SE visible
27 Nov 8.5 23:50:20 32° WSW 23:50:20 32° WSW 23:55:24 10° S visible
28 Nov 9.1 22:16:42 31° SE 22:16:42 31° SE 22:19:34 10° SE visible
29 Nov 9.0 00:00:16 22° WSW 00:00:16 22° WSW 00:03:51 10° SSW visible
29 Nov 9.9 13:21:10 10° S 13:22:05 14° SSE 13:22:05 14° SSE visible
29 Nov 9.4 22:26:42 24° SSE 22:26:42 24° SSE 22:28:50 10° SSE visible
30 Nov 9.5 00:10:17 14° SW 00:10:17 14° SW 00:11:52 10° SW visible
30 Nov 9.5 13:29:53 10° S 13:32:07 22° S 13:32:07 22° S visible
30 Nov 9.8 22:36:47 16° SSE 22:36:47 16° SSE 22:37:56 10° SSE visible
01 Dec 9.7 11:57:03 10° SE 11:58:31 12° ESE 11:58:31 12° ESE visible
01 Dec 9.0 13:38:51 10° SSW 13:42:05 31° S 13:42:05 31° S visible
